Find Starlink 38018

NORAD ID: 100421 Int'l Des: 2026-192 Owner: SPXS Country: US Constellation: starlink operational

Aktuelle Ansicht

3D-Globus wird geladen...

About Starlink 38018

Starlink 38018 (NORAD 100421) is a starlink constellation satellite launched Aug 21, 2026 by SPXS of US. with a mass of 575.00 kg.

Nächste Überflüge

Passes for default location (London). Set your location on the main map for personalized predictions.

Höhenverlauf

Loading altitude history...

Zweizeiliger Elementsatz

1 A0421U 26192T 26255.70709026 -.00886013 00000-0 -11802-1 0 9999
2 A0421 53.1597 343.8724 0000776 58.6707 301.4383 15.60006729 4690
Epoch: 12. Sept. 2026 • Age: 12 hours

Aktueller Status

Höhe 397.5 km
Apogäum / Perigäum N/A
Geschwindigkeit 7.67 km/s
Subsatellitenpunkt -24.39°S, 107.68°W
Startdatum 21. Aug. 2026
Alter 22 days
Typ internet

Technische Details

Klassifizierung Payload
Masse 575.00 kg
Trockenmasse 530.00 kg
Gesamtmasse 575.00 kg
Länge 0.30 m
Durchmesser 4.10 m
Spannweite 29.00 m
Form Box + pan
Hersteller SPXS
Bus-Typ Starlink V2MO
Phasenstatus In Orbit
Besitzer/Staat SPXS/US

Most Searched